JAL625 RJTT-RJFT

Flight info

Callsign JAL625
Flight time N/A
Altitude 32000
Route NINOX4 NINOX Y28 ONDOC Y452 OOITA Y40 KAZMA KAZMA
Aircraft B738/M-V/N

Departure

Time 2026-05-04 02:06
Airport Tokyo Haneda International Airport (RJTT)

Arrival

Time N/A
Airport Kumamoto Airport (RJFT)
Time Latitude Longitude Altitude Speed Heading
2026-05-04 01:29 35.54481 139.78576 29 ft 0 kts 332°
2026-05-04 01:53 35.54480 139.78576 57 ft 1 kts 332°
2026-05-04 01:53 35.54466 139.78586 30 ft 3 kts 332°
2026-05-04 01:53 35.54448 139.78597 30 ft 3 kts 332°
2026-05-04 01:54 35.54430 139.78609 30 ft 3 kts 332°
2026-05-04 01:54 35.54412 139.78621 30 ft 3 kts 332°
2026-05-04 01:54 35.54394 139.78633 30 ft 3 kts 332°
2026-05-04 01:54 35.54377 139.78644 30 ft 2 kts 332°
2026-05-04 01:55 35.54362 139.78657 30 ft 3 kts 303°
2026-05-04 01:55 35.54357 139.78677 28 ft 3 kts 262°
2026-05-04 01:55 35.54362 139.78699 29 ft 2 kts 242°
2026-05-04 01:55 35.54365 139.78706 29 ft 0 kts 240°
2026-05-04 01:59 35.54363 139.78702 29 ft 2 kts 240°
2026-05-04 01:59 35.54344 139.78663 28 ft 9 kts 239°
2026-05-04 02:00 35.54305 139.78580 28 ft 14 kts 239°
2026-05-04 02:00 35.54259 139.78484 29 ft 9 kts 239°
2026-05-04 02:00 35.54251 139.78412 29 ft 9 kts 298°
2026-05-04 02:00 35.54301 139.78367 29 ft 9 kts 329°
2026-05-04 02:01 35.54365 139.78321 28 ft 13 kts 330°
2026-05-04 02:01 35.54454 139.78259 28 ft 16 kts 330°
2026-05-04 02:01 35.54551 139.78189 28 ft 16 kts 330°
2026-05-04 02:01 35.54646 139.78123 28 ft 15 kts 330°
2026-05-04 02:02 35.54736 139.78058 28 ft 15 kts 329°
2026-05-04 02:02 35.54828 139.77993 28 ft 17 kts 330°
2026-05-04 02:02 35.54943 139.77912 29 ft 21 kts 329°
2026-05-04 02:02 35.55081 139.77813 28 ft 24 kts 330°
2026-05-04 02:03 35.55223 139.77712 28 ft 23 kts 330°
2026-05-04 02:03 35.55359 139.77616 28 ft 22 kts 330°
2026-05-04 02:03 35.55491 139.77522 28 ft 22 kts 330°
2026-05-04 02:03 35.55616 139.77434 29 ft 15 kts 330°
2026-05-04 02:04 35.55684 139.77386 29 ft 8 kts 330°
2026-05-04 02:04 35.55706 139.77371 29 ft 3 kts 331°
2026-05-04 02:04 35.55742 139.77341 29 ft 9 kts 311°
2026-05-04 02:04 35.55746 139.77265 29 ft 10 kts 240°
2026-05-04 02:05 35.55684 139.77204 29 ft 13 kts 215°
2026-05-04 02:05 35.55619 139.77180 30 ft 10 kts 165°
2026-05-04 02:05 35.55554 139.77223 24 ft 15 kts 150°
2026-05-04 02:05 35.55311 139.77395 23 ft 75 kts 150°
2026-05-04 02:06 35.54660 139.77855 22 ft 138 kts 151°
2026-05-04 02:06 35.53713 139.78545 304 ft 166 kts 155°
2026-05-04 02:06 35.52687 139.79239 1039 ft 172 kts 160°
2026-05-04 02:06 35.51640 139.79942 1806 ft 179 kts 164°
2026-05-04 02:07 35.50474 139.80731 2223 ft 201 kts 163°
2026-05-04 02:07 35.49185 139.81640 2766 ft 227 kts 161°
2026-05-04 02:07 35.47741 139.82656 2933 ft 254 kts 160°
2026-05-04 02:07 35.46166 139.83791 3245 ft 264 kts 158°
2026-05-04 02:08 35.44574 139.84949 3686 ft 267 kts 159°
2026-05-04 02:08 35.42940 139.86023 4118 ft 262 kts 171°
2026-05-04 02:08 35.41211 139.86202 4557 ft 242 kts 199°
2026-05-04 02:08 35.39738 139.85430 5000 ft 231 kts 221°
2026-05-04 02:09 35.38649 139.84017 5448 ft 228 kts 240°
2026-05-04 02:09 35.38109 139.82206 5962 ft 228 kts 259°
2026-05-04 02:09 35.38165 139.80243 6537 ft 237 kts 276°
2026-05-04 02:09 35.38833 139.78351 7109 ft 250 kts 294°
2026-05-04 02:10 35.39878 139.76625 7700 ft 254 kts 298°
2026-05-04 02:10 35.40982 139.74938 8284 ft 254 kts 297°
2026-05-04 02:10 35.41916 139.73182 8863 ft 242 kts 278°
2026-05-04 02:10 35.42247 139.71194 9507 ft 239 kts 272°
2026-05-04 02:11 35.42524 139.69191 10053 ft 239 kts 271°
2026-05-04 02:11 35.42803 139.67150 10657 ft 247 kts 271°
2026-05-04 02:11 35.43092 139.65015 11092 ft 261 kts 271°
2026-05-04 02:11 35.43398 139.62770 11490 ft 274 kts 271°
2026-05-04 02:12 35.43724 139.60403 11885 ft 288 kts 272°
2026-05-04 02:12 35.44065 139.57929 12282 ft 301 kts 272°
2026-05-04 02:12 35.44423 139.55354 12668 ft 312 kts 272°
2026-05-04 02:12 35.44790 139.52717 13003 ft 325 kts 272°
2026-05-04 02:13 35.45178 139.49923 13243 ft 339 kts 272°
2026-05-04 02:13 35.45581 139.47027 13436 ft 351 kts 272°
2026-05-04 02:13 35.45995 139.44075 13972 ft 350 kts 272°
2026-05-04 02:13 35.46410 139.41129 14529 ft 351 kts 272°
2026-05-04 02:14 35.46823 139.38170 15026 ft 353 kts 272°
2026-05-04 02:14 35.47235 139.35194 15514 ft 355 kts 272°
2026-05-04 02:14 35.47650 139.32175 15831 ft 362 kts 272°
2026-05-04 02:14 35.48065 139.29149 16182 ft 367 kts 272°
2026-05-04 02:15 35.48494 139.26056 16636 ft 369 kts 272°
2026-05-04 02:15 35.48919 139.22946 17042 ft 371 kts 272°
2026-05-04 02:15 35.49347 139.19800 17367 ft 375 kts 272°
2026-05-04 02:15 35.49697 139.16651 17840 ft 371 kts 268°
2026-05-04 02:16 35.49704 139.13496 18123 ft 368 kts 261°
2026-05-04 02:16 35.49528 139.10342 18397 ft 372 kts 261°
2026-05-04 02:16 35.49364 139.07188 18767 ft 372 kts 261°
2026-05-04 02:16 35.49206 139.04052 19101 ft 374 kts 261°
2026-05-04 02:17 35.49048 139.00856 19426 ft 376 kts 261°
2026-05-04 02:17 35.48890 138.97649 19756 ft 378 kts 261°
2026-05-04 02:17 35.48786 138.95549 19963 ft 379 kts 261°
2026-05-04 02:17 35.48612 138.92314 20240 ft 381 kts 260°
2026-05-04 02:18 35.48430 138.89057 20566 ft 384 kts 261°
2026-05-04 02:18 35.48283 138.85785 20915 ft 386 kts 261°
2026-05-04 02:18 35.48133 138.82486 21216 ft 388 kts 261°
2026-05-04 02:18 35.47977 138.79181 21534 ft 388 kts 261°
2026-05-04 02:19 35.47817 138.75919 21788 ft 389 kts 261°
2026-05-04 02:19 35.47649 138.72590 21956 ft 392 kts 261°
2026-05-04 02:19 35.47478 138.69243 22214 ft 393 kts 261°
2026-05-04 02:19 35.47307 138.65902 22473 ft 394 kts 261°
2026-05-04 02:20 35.47134 138.62542 22716 ft 395 kts 260°
2026-05-04 02:20 35.46959 138.59172 22956 ft 396 kts 260°
2026-05-04 02:20 35.46783 138.55797 23202 ft 396 kts 260°
2026-05-04 02:20 35.46600 138.52412 23363 ft 397 kts 260°
2026-05-04 02:21 35.46421 138.49075 23539 ft 399 kts 260°
2026-05-04 02:21 35.46244 138.45670 23733 ft 400 kts 260°
2026-05-04 02:21 35.46068 138.42275 23990 ft 399 kts 260°
2026-05-04 02:21 35.45891 138.38870 24212 ft 400 kts 260°
2026-05-04 02:22 35.45701 138.35465 24423 ft 401 kts 260°
2026-05-04 02:22 35.45519 138.32039 24563 ft 404 kts 261°
2026-05-04 02:22 35.45361 138.28620 24987 ft 399 kts 260°
2026-05-04 02:22 35.45175 138.25276 25353 ft 398 kts 260°
2026-05-04 02:23 35.44978 138.21873 25529 ft 402 kts 260°
2026-05-04 02:23 35.44784 138.18452 25628 ft 404 kts 260°
2026-05-04 02:23 35.44592 138.15022 25916 ft 401 kts 260°
2026-05-04 02:23 35.44396 138.11621 26086 ft 400 kts 260°
2026-05-04 02:24 35.44196 138.08215 26270 ft 399 kts 259°
2026-05-04 02:24 35.43997 138.04831 26443 ft 398 kts 259°
2026-05-04 02:24 35.43797 138.01443 26610 ft 397 kts 260°
2026-05-04 02:24 35.43597 137.98070 26763 ft 397 kts 259°
2026-05-04 02:25 35.43395 137.94751 26947 ft 396 kts 259°
2026-05-04 02:25 35.43192 137.91391 27179 ft 394 kts 260°
2026-05-04 02:25 35.42993 137.88050 27442 ft 392 kts 259°
2026-05-04 02:25 35.42793 137.84728 27688 ft 390 kts 260°
2026-05-04 02:26 35.42659 137.82532 27812 ft 390 kts 259°
2026-05-04 02:26 35.42527 137.80367 27933 ft 390 kts 259°
2026-05-04 02:26 35.42322 137.77070 28259 ft 385 kts 259°
2026-05-04 02:26 35.42093 137.73807 28509 ft 383 kts 258°
2026-05-04 02:27 35.41850 137.70542 28640 ft 385 kts 258°
2026-05-04 02:27 35.41607 137.67318 28756 ft 386 kts 258°
2026-05-04 02:27 35.41366 137.64035 28961 ft 385 kts 258°
2026-05-04 02:27 35.41129 137.60776 29242 ft 383 kts 258°
2026-05-04 02:28 35.40877 137.57529 29531 ft 380 kts 256°
2026-05-04 02:28 35.40418 137.54377 29638 ft 375 kts 252°
2026-05-04 02:28 35.39757 137.51283 29870 ft 374 kts 250°
2026-05-04 02:28 35.39075 137.48203 30056 ft 374 kts 250°
2026-05-04 02:29 35.38392 137.45130 30280 ft 373 kts 250°
2026-05-04 02:29 35.37726 137.42121 30511 ft 372 kts 250°
2026-05-04 02:29 35.37053 137.39066 30709 ft 371 kts 250°
2026-05-04 02:29 35.36382 137.36009 30898 ft 371 kts 250°
2026-05-04 02:30 35.35715 137.32963 31127 ft 369 kts 251°
2026-05-04 02:30 35.35052 137.29934 31373 ft 368 kts 250°
2026-05-04 02:30 35.34387 137.26903 31568 ft 368 kts 250°